Header for Extended Forecast Station List Page

Search by: ID | Name | Date | Parm | Value | Avg | % Avg
Sort by: ID | Name | Date | Parm | Value | Avg | % Avg

Enter search or view all records.

Click on id for station plot
#IDNameDateParmValueAvg% Avg
0BULO3BULLY CREEK-BULLY CREEK DAM12-06-2021INFLOW (KAF)205404
1RIDI1WILLOW CREEK-RIRIE DAM12-06-2021INFLOW (KAF)91561
2LWRI1LITTLE WOOD-LITTLE WOOD DAM12-06-2021INFLOW (KAF)141781
3HWRI1BIG LOST-AT HOWELL RANCH NEAR CHILLY12-06-2021DISCHARGE (KAF)151882
4DEDI1DEADWOOD-NEAR LOWMAN12-06-2021INFLOW (KAF)142070
5BERO3MALHEUR-AGENCY VALLEY DAM12-06-2021INFLOW (KAF)202678
6ARDW1ENTIAT-NEAR ARDENVOIR12-06-2021DISCHARGE (KAF)4127148
7MAGI1BIG WOOD-MAGIC DAM12-06-2021INFLOW (KAF)203753
8MACI1BIG LOST-MACKAY RESERVOIR NEAR MACKAY12-06-2021INFLOW (KAF)273871
9MYKO3MCKAY CREEK-NEAR PILOT ROCK12-06-2021DISCHARGE (KAF)4038104
10HOTI1BRUNEAU-NEAR HOT SPRINGS12-06-2021DISCHARGE (KAF)263966
11BUDW1BUMPING-BUMPING LAKE DAM12-06-2021INFLOW (KAF)284070
12HALI1BIG WOOD-AT HAILEY12-06-2021DISCHARGE (KAF)244061
13RCCM8ROCK CREEK-NEAR CLINTON12-06-2021DISCHARGE (KAF)4847103
14WRMO3MALHEUR-WARM SPRINGS DAM12-06-2021INFLOW (KAF)314865
15DLGM8CLARK FORK-AT DEER LODGE12-06-2021DISCHARGE (KAF)5452104
16KADW1KACHESS-KACHESS DAM12-06-2021INFLOW (KAF)5252100
17KEDW1YAKIMA-KEECHELUS LAKE12-06-2021INFLOW (KAF)525397
18MILI1SNAKE-AT MILNER12-06-2021DISCHARGE (KAF)M54M
19STRM8ST. REGIS-NEAR ST. REGIS12-06-2021DISCHARGE (KAF)335659
20PIHI1PORTNEUF-AT POCATELLO12-06-2021DISCHARGE (KAF)425773
21GIBO3UMATILLA-NEAR GIBBON12-06-2021DISCHARGE (KAF)556091
22TNAW1TEANAWAY-BELOW FORKS12-06-2021DISCHARGE (KAF)6565101
23BIGI1BOISE-AT GLENWOOD BRIDGE12-06-2021DISCHARGE (KAF)13466202
24RILW1TIETON-RIMROCK LAKE NEAR RIMROCK12-06-2021INFLOW (KAF)577873
25SATI1ST MARIES-NEAR SANTA12-06-2021DISCHARGE (KAF)298236
26EASW1YAKIMA-AT EASTON12-06-2021DISCHARGE (KAF)738486
27ARAI1SF BOISE-ANDERSON RANCH DAM12-06-2021INFLOW (KAF)749776
28TEAI1TETON-NEAR ST. ANTHONY12-06-2021DISCHARGE (KAF)779978
29IPDI1HENRYS FORK-ISLAND PARK DAM12-06-2021INFLOW (KAF)7310570
30PATW1METHOW-NEAR PATEROS12-06-2021DISCHARGE (KAF)138113122
31CHEI1FALL RIVER-NEAR CHESTER12-06-2021DISCHARGE (KAF)9611385
32CSDI1NF PAYETTE-CASCADE DAM12-06-2021INFLOW (KAF)8411772
33JLKW4SNAKE-JACKSON LAKE AT DAM12-06-2021INFLOW (KAF)9111877
34CLUW1CLE ELUM-CLE ELUM LAKE12-06-2021INFLOW (KAF)10111985
35DRMM8CLARK FORK-NR DRUMMOND12-06-2021DISCHARGE (KAF)11712891
36CLFW1NACHES-NEAR CLIFFDEL12-06-2021DISCHARGE (KAF)9313668
37UMAO3UMATILLA-NEAR UMATILLA12-06-2021DISCHARGE (KAF)14314797
38BONM8BLACKFOOT-NEAR BONNER12-06-2021DISCHARGE (KAF)12414983
39PDTO3UMATILLA-AT PENDLETON12-06-2021DISCHARGE (KAF)13415587
40WGCM8MF FLATHEAD-NEAR WEST GLACIER12-06-2021DISCHARGE (KAF)245171143
41OWYO3OWYHEE-OWYHEE DAM12-06-2021INFLOW (KAF)257173149
42LAUW1KETTLE-AT LAURIER12-06-2021DISCHARGE (KAF)16818491
43FCFM8NF FLATHEAD-NEAR COLUMBIA FALLS12-06-2021DISCHARGE (KAF)402190212
44NACW1NACHES-NEAR NACHES12-06-2021DISCHARGE (KAF)8719046
45PARI1BOISE-NEAR PARMA12-06-2021DISCHARGE (KAF)279198141
46TCHW1WALLA WALLA-NEAR TOUCHET12-06-2021DISCHARGE (KAF)14920872
47CHDW1CHELAN-LAKE CHELAN DAM12-06-2021INFLOW (KAF)348211165
48WSRI1WEISER-NEAR WEISER12-06-2021DISCHARGE (KAF)20921697
49BITM8BITTERROOT-NEAR MISSOULA12-06-2021DISCHARGE (KAF)236219107
50LUCI1BOISE-LUCKY PEAK DAM12-06-2021INFLOW (KAF)21322595
51HODO3HOOD-NEAR TUCKER BRIDGE12-06-2021DISCHARGE (KAF)295252117
52PRTI1PRIEST-NEAR PRIEST RIVER12-06-2021DISCHARGE (KAF)20625481
53MONO3NF JOHN DAY-AT MONUMENT12-06-2021DISCHARGE (KAF)10927040
54HHWM8SF FLATHEAD-HUNGRY HORSE DAM12-06-2021INFLOW (KAF)281271104
55UNDW1WHITE SALMON-NEAR UNDERWOOD12-06-2021DISCHARGE (KAF)28729498
56JKSW4SNAKE-NEAR JACKSON12-06-2021DISCHARGE (KAF)24331777
57TONW1OKANOGAN-NEAR TONASKET12-06-2021DISCHARGE (KAF)406322126
58ABOM8CLARK FORK-ABOVE MISSOULA12-06-2021DISCHARGE (KAF)30134986
59PESW1WENATCHEE-AT PESHASTIN12-06-2021DISCHARGE (KAF)435349125
60UMTW1YAKIMA-AT UMTANUM12-06-2021DISCHARGE (KAF)30436184
61ALPW4SNAKE-NEAR ALPINE12-06-2021DISCHARGE (KAF)30137780
62ANTI1HENRYS FORK-AT ST. ANTHONY12-06-2021DISCHARGE (KAF)31038281
63PITW1KLICKITAT-NEAR PITT12-06-2021DISCHARGE (KAF)409392104
64EMMI1PAYETTE-NEAR EMMETT12-06-2021DISCHARGE (KAF)34439587
65HEII1SNAKE-NEAR HEISE12-06-2021DISCHARGE (KAF)39539999
66SERO3JOHN DAY-AT SERVICE CK12-06-2021DISCHARGE (KAF)19142245
67REXI1HENRYS FORK-AT REXBURG12-06-2021DISCHARGE (KAF)36743784
68TRYO3GRANDE RONDE-TROY12-06-2021DISCHARGE (KAF)34956862
69BELM8CLARK FORK-BELOW MISSOULA12-06-2021DISCHARGE (KAF)53758092
70BFTI1SNAKE-NEAR BLACKFOOT12-06-2021DISCHARGE (KAF)50558786
71PARW1YAKIMA-NEAR PARKER12-06-2021DISCHARGE (KAF)44759475
72PLDI1SF SNAKE-PALISADES DAM12-06-2021INFLOW (KAF)45859477
73SNAI1SNAKE-AT BLACKFOOT12-06-2021DISCHARGE (KAF)50560084
74SIFI1SNAKE-AB EAGLE ROCK NR IDAHO FALLS12-06-2021DISCHARGE (KAF)60768489
75SHYI1SNAKE-NEAR SHELLEY12-06-2021DISCHARGE (KAF)58368785
76SRGM8CLARK FORK-AT ST REGIS12-06-2021DISCHARGE (KAF)67478486
77LYDM8KOOTENAI-LIBBY DAM12-06-2021INFLOW (KAF)1142843135
78KIOW1YAKIMA-AT KIONA12-06-2021DISCHARGE (KAF)61185971
79DWRI1NF CLEARWATER-DWORSHAK DAM12-06-2021INFLOW (KAF)88089399
80CFMM8FLATHEAD-AT COLUMBIA FALLS12-06-2021DISCHARGE (KAF)1279985130
81WHBI1SALMON-AT WHITEBIRD12-06-2021DISCHARGE (KAF)937112483
82ORFI1CLEARWATER-AT OROFINO12-06-2021DISCHARGE (KAF)825112573
83AFRI1SNAKE-AMERICAN FALLS RESERVOIR12-06-2021INFLOW (KAF)1146121295
84COEI1COEUR D ALENE-COEUR D ALENE LAKE12-06-2021INFLOW (KAF)1095134382
85MODO3DESCHUTES-AT MOODY NR BIGGS12-06-2021DISCHARGE (KAF)1259143488
86SPOW1SPOKANE-AT SPOKANE12-06-2021DISCHARGE (KAF)1034143672
87KERM8FLATHEAD-SELI’Š KSANKA QLISPE’ DAM12-06-2021INFLOW (KAF)14481453100
88LLKW1SPOKANE-AT LONGLAKE12-06-2021INFLOW (KAF)1326171977
89SWAI1SNAKE-BELOW SWAN FALLS12-06-2021DISCHARGE (KAF)1712187891
90SPDI1CLEARWATER-AT SPALDING12-06-2021DISCHARGE (KAF)1449210369
91LEOI1KOOTENAI-AT LEONIA12-06-2021DISCHARGE (KAF)32452252144
92WEII1SNAKE-AT WEISER12-06-2021DISCHARGE (KAF)2827303393
93NOXM8CLARK FORK-NOXON RAPIDS DAM12-06-2021INFLOW (KAF)33323150106
94BRNI1SNAKE-BROWNLEE DAM12-06-2021INFLOW (KAF)3054328793
95CABI1CLARK FORK-CABINET GORGE DAM12-06-2021INFLOW (KAF)36793622102
96ALFW1PEND OREILLE-ALBENI FALLS DAM12-06-2021INFLOW (KAF)4106414399
97ANAW1SNAKE-NEAR ANATONE12-06-2021DISCHARGE (KAF)4427585776
98LGDW1SNAKE-LOWER GRANITE DAM12-06-2021INFLOW (KAF)5875813672
99LGSW1SNAKE-LITTLE GOOSE DAM12-06-2021INFLOW (KAF)5875817972
100LMNW1SNAKE-LOWER MONUMENTAL DAM12-06-2021INFLOW (KAF)6156833374
101IHDW1SNAKE-ICE HARBOR DAM12-06-2021INFLOW (KAF)6156836374
102CIBW1COLUMBIA-AT INTL BOUNDARY12-06-2021DISCHARGE (KAF)2073819652106
103GCDW1COLUMBIA-GRAND COULEE DAM12-06-2021INFLOW (KAF)2232721610103
104CHJW1COLUMBIA-CHIEF JOSEPH DAM12-06-2021INFLOW (KAF)2447823863103
105WELW1COLUMBIA-WELLS DAM12-06-2021INFLOW (KAF)2503424522102
106RRHW1COLUMBIA-ROCKY REACH DAM12-06-2021INFLOW (KAF)2578424937103
107WANW1COLUMBIA-WANAPUM DAM12-06-2021INFLOW (KAF)2624825553103
108PRWW1COLUMBIA-PRIEST RAPIDS DAM12-06-2021INFLOW (KAF)2626125629102
109MCDW1COLUMBIA-MCNARY DAM12-06-2021INFLOW (KAF)332873509495
110JDAO3COLUMBIA-JOHN DAY DAM12-06-2021INFLOW (KAF)347973683594
111TDAO3COLUMBIA-THE DALLES DAM12-06-2021INFLOW (KAF)352343750694
112BONO3COLUMBIA-BONNEVILLE DAM12-06-2021INFLOW (KAF)362173931592
113BFEI1KOOTENAI-AT BONNERS FERRY12-06-2021STAGE (FT)MMM
114HOPI1PEND OREILLE-PEND OREILLE LAKE NR HOPE12-06-2021LAKE ELEVATION (FT)MMM
115SJMI1ST JOE-AT ST MARIES12-06-2021STAGE (FT)MMM